Zurück zum Katalog

EUTE 3B

AktivKommunikationGEO
NORAD 39773·PAYLOAD·🇪🇺 EU

Gestartet May 26, 2014 von Sea Launch Platform

Loading…

TLE

AktuellSource: Space-Track

Epoche: Sep 14, 2026, 06:58 UTC

1 39773U 14030A   26257.29059104  .00000012  00000-0  00000-0 0  9992
2 39773   0.0664   3.7909 0004106 166.3367 290.8558  1.00273302 44966

Verfolge EUTE 3B in Echtzeit mit AllMySat

Download on the App Store